Time,TemperatureF,DewpointF,PressureIn,WindDirection,WindDirectionDegrees,WindSpeedMPH,WindSpeedGustMPH,Humidity,HourlyPrecipIn,Conditions,Clouds,dailyrainin,SolarRadiationWatts/m^2,SoftwareType,DateUTC
2013-06-23 00:12:00,44.0,41.0,-100.00,SW,225,9.0,14.0,88,0.00,,,0.85,0.000000,,2013-06-23 06:12:00,
2013-06-23 00:22:00,44.0,41.0,-100.00,SW,225,9.0,14.0,88,0.00,,,0.85,0.000000,,2013-06-23 06:22:00,
2013-06-23 00:33:00,44.0,41.0,-100.00,SW,225,9.0,14.0,88,0.00,,,0.85,0.000000,,2013-06-23 06:33:00,
2013-06-23 00:43:00,44.0,41.0,-100.00,SW,225,9.0,14.0,88,0.00,,,0.85,0.000000,,2013-06-23 06:43:00,
2013-06-23 00:52:00,43.0,39.0,-100.00,WSW,239,13.0,19.0,86,0.00,,,0.85,0.000000,,2013-06-23 06:52:00,
2013-06-23 01:12:00,43.0,39.0,-100.00,WSW,239,13.0,19.0,86,0.00,,,0.85,0.000000,,2013-06-23 07:12:00,
2013-06-23 01:22:00,43.0,39.0,-100.00,WSW,239,13.0,19.0,86,0.00,,,0.85,0.000000,,2013-06-23 07:22:00,
2013-06-23 01:34:00,43.0,39.0,-100.00,WSW,239,13.0,19.0,86,0.00,,,0.85,0.000000,,2013-06-23 07:34:00,
2013-06-23 01:43:00,43.0,39.0,-100.00,WSW,239,13.0,19.0,86,0.00,,,0.85,0.000000,,2013-06-23 07:43:00,
2013-06-23 01:52:00,43.0,38.0,-100.00,WSW,247,14.0,20.0,83,0.00,,,0.85,0.000000,,2013-06-23 07:52:00,
2013-06-23 02:12:00,43.0,38.0,-100.00,WSW,247,14.0,20.0,83,0.00,,,0.85,0.000000,,2013-06-23 08:12:00,
2013-06-23 02:22:00,43.0,38.0,-100.00,WSW,247,14.0,20.0,83,0.00,,,0.85,0.000000,,2013-06-23 08:22:00,
2013-06-23 02:34:00,43.0,38.0,-100.00,WSW,247,14.0,20.0,83,0.00,,,0.85,0.000000,,2013-06-23 08:34:00,
2013-06-23 02:43:00,43.0,38.0,-100.00,WSW,247,14.0,20.0,83,0.00,,,0.85,0.000000,,2013-06-23 08:43:00,
2013-06-23 05:11:00,45.0,37.0,-100.00,WNW,286,11.0,17.0,72,0.00,,,0.85,0.000000,,2013-06-23 11:11:00,
2013-06-23 05:22:00,45.0,37.0,-100.00,WNW,286,11.0,17.0,72,0.00,,,0.85,0.000000,,2013-06-23 11:22:00,
2013-06-23 05:33:00,45.0,37.0,-100.00,WNW,286,11.0,17.0,72,0.00,,,0.85,0.000000,,2013-06-23 11:33:00,
2013-06-23 05:43:00,45.0,37.0,-100.00,WNW,286,11.0,17.0,72,0.00,,,0.85,0.000000,,2013-06-23 11:43:00,
2013-06-23 05:52:00,42.0,35.0,-100.00,West,260,13.0,21.0,77,-99.99,,,0.85,5.000000,,2013-06-23 11:52:00,
2013-06-23 06:12:00,42.0,35.0,-100.00,West,260,13.0,21.0,77,-99.99,,,0.85,5.000000,,2013-06-23 12:12:00,
2013-06-23 06:22:00,42.0,35.0,-100.00,West,260,13.0,21.0,77,-99.99,,,0.85,5.000000,,2013-06-23 12:22:00,
2013-06-23 06:33:00,42.0,35.0,-100.00,West,260,13.0,21.0,77,-99.99,,,0.85,5.000000,,2013-06-23 12:33:00,
2013-06-23 06:42:00,42.0,35.0,-100.00,West,260,13.0,21.0,77,-99.99,,,0.85,5.000000,,2013-06-23 12:42:00,
2013-06-23 06:52:00,42.0,35.0,-100.00,WSW,253,8.0,18.0,77,0.00,,,0.85,26.000000,,2013-06-23 12:52:00,
2013-06-23 07:11:00,42.0,35.0,-100.00,WSW,253,8.0,18.0,77,0.00,,,0.85,26.000000,,2013-06-23 13:11:00,
2013-06-23 07:23:00,42.0,35.0,-100.00,WSW,253,8.0,18.0,77,0.00,,,0.85,26.000000,,2013-06-23 13:23:00,
2013-06-23 07:34:00,42.0,35.0,-100.00,WSW,253,8.0,18.0,77,0.00,,,0.85,26.000000,,2013-06-23 13:34:00,
2013-06-23 07:43:00,42.0,35.0,-100.00,WSW,253,8.0,18.0,77,0.00,,,0.85,26.000000,,2013-06-23 13:43:00,
2013-06-23 07:52:00,46.0,36.0,-100.00,West,273,7.0,14.0,69,0.00,,,0.85,292.000000,,2013-06-23 13:52:00,
2013-06-23 08:11:00,46.0,36.0,-100.00,West,273,7.0,14.0,69,0.00,,,0.85,292.000000,,2013-06-23 14:11:00,
2013-06-23 08:22:00,46.0,36.0,-100.00,West,273,7.0,14.0,69,0.00,,,0.85,292.000000,,2013-06-23 14:22:00,
2013-06-23 08:34:00,46.0,36.0,-100.00,West,273,7.0,14.0,69,0.00,,,0.85,292.000000,,2013-06-23 14:34:00,
2013-06-23 08:44:00,46.0,36.0,-100.00,West,273,7.0,14.0,69,0.00,,,0.85,292.000000,,2013-06-23 14:44:00,
2013-06-23 08:52:00,48.0,38.0,-100.00,WSW,245,11.0,16.0,68,0.00,,,0.85,560.000000,,2013-06-23 14:52:00,
2013-06-23 09:11:00,48.0,38.0,-100.00,WSW,245,11.0,16.0,68,0.00,,,0.85,560.000000,,2013-06-23 15:11:00,
2013-06-23 09:23:00,48.0,38.0,-100.00,WSW,245,11.0,16.0,68,0.00,,,0.85,560.000000,,2013-06-23 15:23:00,
2013-06-23 09:35:00,48.0,38.0,-100.00,WSW,245,11.0,16.0,68,0.00,,,0.85,560.000000,,2013-06-23 15:35:00,
2013-06-23 09:43:00,48.0,38.0,-100.00,WSW,245,11.0,16.0,68,0.00,,,0.85,560.000000,,2013-06-23 15:43:00,
2013-06-23 09:52:00,50.0,37.0,-100.00,SW,232,8.0,17.0,61,0.00,,,0.85,757.000000,,2013-06-23 15:52:00,
2013-06-23 10:12:00,50.0,37.0,-100.00,SW,232,8.0,17.0,61,0.00,,,0.85,757.000000,,2013-06-23 16:12:00,
2013-06-23 10:22:00,50.0,37.0,-100.00,SW,232,8.0,17.0,61,0.00,,,0.85,757.000000,,2013-06-23 16:22:00,
2013-06-23 10:36:00,50.0,37.0,-100.00,SW,232,8.0,17.0,61,0.00,,,0.85,757.000000,,2013-06-23 16:36:00,
2013-06-23 10:42:00,50.0,37.0,-100.00,SW,232,8.0,17.0,61,0.00,,,0.85,757.000000,,2013-06-23 16:42:00,
2013-06-23 10:52:00,51.0,37.0,-100.00,WSW,241,12.0,18.0,59,0.00,,,0.85,933.000000,,2013-06-23 16:52:00,
2013-06-23 11:12:00,51.0,37.0,-100.00,WSW,241,12.0,18.0,59,0.00,,,0.85,933.000000,,2013-06-23 17:12:00,
2013-06-23 11:22:00,51.0,37.0,-100.00,WSW,241,12.0,18.0,59,0.00,,,0.85,933.000000,,2013-06-23 17:22:00,
2013-06-23 11:33:00,51.0,37.0,-100.00,WSW,241,12.0,18.0,59,0.00,,,0.85,933.000000,,2013-06-23 17:33:00,
2013-06-23 11:43:00,51.0,37.0,-100.00,WSW,241,12.0,18.0,59,0.00,,,0.85,933.000000,,2013-06-23 17:43:00,
2013-06-23 11:52:00,53.0,35.0,-100.00,WSW,244,13.0,21.0,50,0.00,,,0.85,1064.000000,,2013-06-23 17:52:00,
2013-06-23 12:22:00,53.0,35.0,-100.00,WSW,244,13.0,21.0,50,0.00,,,0.85,1064.000000,,2013-06-23 18:22:00,
2013-06-23 12:34:00,53.0,35.0,-100.00,WSW,244,13.0,21.0,50,0.00,,,0.85,1064.000000,,2013-06-23 18:34:00,
2013-06-23 12:42:00,53.0,35.0,-100.00,WSW,244,13.0,21.0,50,0.00,,,0.85,1064.000000,,2013-06-23 18:42:00,
2013-06-23 12:52:00,58.0,37.0,-100.00,SW,235,10.0,20.0,46,0.00,,,0.62,1143.000000,,2013-06-23 18:52:00,
2013-06-23 13:11:00,58.0,37.0,-100.00,SW,235,10.0,20.0,46,0.00,,,0.62,1143.000000,,2013-06-23 19:11:00,
2013-06-23 13:21:00,58.0,37.0,-100.00,SW,235,10.0,20.0,46,0.00,,,0.62,1143.000000,,2013-06-23 19:21:00,
2013-06-23 13:32:00,58.0,37.0,-100.00,SW,235,10.0,20.0,46,0.00,,,0.62,1143.000000,,2013-06-23 19:32:00,
2013-06-23 13:43:00,58.0,37.0,-100.00,SW,235,10.0,20.0,46,0.00,,,0.62,1143.000000,,2013-06-23 19:43:00,
2013-06-23 13:52:00,60.0,37.0,-100.00,SW,236,10.0,18.0,43,0.00,,,0.15,1221.000000,,2013-06-23 19:52:00,
2013-06-23 14:12:00,60.0,37.0,-100.00,SW,236,10.0,18.0,43,0.00,,,0.15,1221.000000,,2013-06-23 20:12:00,
2013-06-23 14:24:00,60.0,37.0,-100.00,SW,236,10.0,18.0,43,0.00,,,0.15,1221.000000,,2013-06-23 20:24:00,
2013-06-23 14:33:00,60.0,37.0,-100.00,SW,236,10.0,18.0,43,0.00,,,0.15,1221.000000,,2013-06-23 20:33:00,
2013-06-23 14:42:00,60.0,37.0,-100.00,SW,236,10.0,18.0,43,0.00,,,0.15,1221.000000,,2013-06-23 20:42:00,
2013-06-23 14:52:00,60.0,36.0,-100.00,SW,228,9.0,19.0,40,0.00,,,0.01,1084.000000,,2013-06-23 20:52:00,
2013-06-23 15:11:00,60.0,36.0,-100.00,SW,228,9.0,19.0,40,0.00,,,0.01,1084.000000,,2013-06-23 21:11:00,
2013-06-23 15:22:00,60.0,36.0,-100.00,SW,228,9.0,19.0,40,0.00,,,0.01,1084.000000,,2013-06-23 21:22:00,
2013-06-23 15:33:00,60.0,36.0,-100.00,SW,228,9.0,19.0,40,0.00,,,0.01,1084.000000,,2013-06-23 21:33:00,
2013-06-23 15:44:00,60.0,36.0,-100.00,SW,228,9.0,19.0,40,0.00,,,0.01,1084.000000,,2013-06-23 21:44:00,
2013-06-23 15:52:00,61.0,36.0,-100.00,WSW,255,11.0,18.0,40,0.00,,,0.00,1091.000000,,2013-06-23 21:52:00,
2013-06-23 16:11:00,61.0,36.0,-100.00,WSW,255,11.0,18.0,40,0.00,,,0.00,1091.000000,,2013-06-23 22:11:00,
2013-06-23 16:22:00,61.0,36.0,-100.00,WSW,255,11.0,18.0,40,0.00,,,0.00,1091.000000,,2013-06-23 22:22:00,
2013-06-23 16:32:00,61.0,36.0,-100.00,WSW,255,11.0,18.0,40,0.00,,,0.00,1091.000000,,2013-06-23 22:32:00,
2013-06-23 16:43:00,61.0,36.0,-100.00,WSW,255,11.0,18.0,40,0.00,,,0.00,1091.000000,,2013-06-23 22:43:00,
2013-06-23 16:52:00,61.0,34.0,-100.00,SW,233,13.0,20.0,36,0.00,,,0.00,928.000000,,2013-06-23 22:52:00,
2013-06-23 17:11:00,61.0,34.0,-100.00,SW,233,13.0,20.0,36,0.00,,,0.00,928.000000,,2013-06-23 23:11:00,
2013-06-23 17:22:00,61.0,34.0,-100.00,SW,233,13.0,20.0,36,0.00,,,0.00,928.000000,,2013-06-23 23:22:00,
2013-06-23 17:33:00,61.0,34.0,-100.00,SW,233,13.0,20.0,36,0.00,,,0.00,928.000000,,2013-06-23 23:33:00,
2013-06-23 17:44:00,61.0,34.0,-100.00,SW,233,13.0,20.0,36,0.00,,,0.00,928.000000,,2013-06-23 23:44:00,
2013-06-23 17:52:00,62.0,35.0,-100.00,SW,222,10.0,19.0,36,0.00,,,0.00,740.000000,,2013-06-23 23:52:00,
2013-06-23 18:11:00,62.0,35.0,-100.00,SW,222,10.0,19.0,36,0.00,,,0.00,740.000000,,2013-06-24 00:11:00,
2013-06-23 18:22:00,62.0,35.0,-100.00,SW,222,10.0,19.0,36,0.00,,,0.00,740.000000,,2013-06-24 00:22:00,
2013-06-23 18:33:00,62.0,35.0,-100.00,SW,222,10.0,19.0,36,0.00,,,0.00,740.000000,,2013-06-24 00:33:00,
2013-06-23 18:42:00,62.0,35.0,-100.00,SW,222,10.0,19.0,36,0.00,,,0.00,740.000000,,2013-06-24 00:42:00,
2013-06-23 18:52:00,64.0,37.0,-100.00,WSW,237,5.0,17.0,37,0.00,,,0.00,516.000000,,2013-06-24 00:52:00,
2013-06-23 19:11:00,64.0,37.0,-100.00,WSW,237,5.0,17.0,37,0.00,,,0.00,516.000000,,2013-06-24 01:11:00,
2013-06-23 19:22:00,64.0,37.0,-100.00,WSW,237,5.0,17.0,37,0.00,,,0.00,516.000000,,2013-06-24 01:22:00,
2013-06-23 19:32:00,64.0,37.0,-100.00,WSW,237,5.0,17.0,37,0.00,,,0.00,516.000000,,2013-06-24 01:32:00,
2013-06-23 19:42:00,64.0,37.0,-100.00,WSW,237,5.0,17.0,37,0.00,,,0.00,516.000000,,2013-06-24 01:42:00,
2013-06-23 19:52:00,63.0,38.0,-100.00,SW,219,2.0,8.0,39,0.00,,,0.00,186.000000,,2013-06-24 01:52:00,
2013-06-23 20:11:00,63.0,38.0,-100.00,SW,219,2.0,8.0,39,0.00,,,0.00,186.000000,,2013-06-24 02:11:00,
2013-06-23 20:22:00,63.0,38.0,-100.00,SW,219,2.0,8.0,39,0.00,,,0.00,186.000000,,2013-06-24 02:22:00,
2013-06-23 20:33:00,63.0,38.0,-100.00,SW,219,2.0,8.0,39,0.00,,,0.00,186.000000,,2013-06-24 02:33:00,
2013-06-23 20:42:00,63.0,38.0,-100.00,SW,219,2.0,8.0,39,0.00,,,0.00,186.000000,,2013-06-24 02:42:00,
2013-06-23 20:52:00,56.0,40.0,-100.00,SE,133,7.0,11.0,55,0.00,,,0.00,58.000000,,2013-06-24 02:52:00,
2013-06-23 21:11:00,56.0,40.0,-100.00,SE,133,7.0,11.0,55,0.00,,,0.00,58.000000,,2013-06-24 03:11:00,
2013-06-23 21:22:00,56.0,40.0,-100.00,SE,133,7.0,11.0,55,0.00,,,0.00,58.000000,,2013-06-24 03:22:00,
2013-06-23 21:33:00,56.0,40.0,-100.00,SE,133,7.0,11.0,55,0.00,,,0.00,58.000000,,2013-06-24 03:33:00,
2013-06-23 21:43:00,56.0,40.0,-100.00,SE,133,7.0,11.0,55,0.00,,,0.00,58.000000,,2013-06-24 03:43:00,
2013-06-23 21:52:00,52.0,37.0,-100.00,SE,125,10.0,14.0,57,0.00,,,0.00,5.000000,,2013-06-24 03:52:00,
2013-06-23 22:12:00,52.0,37.0,-100.00,SE,125,10.0,14.0,57,0.00,,,0.00,5.000000,,2013-06-24 04:12:00,
2013-06-23 22:22:00,52.0,37.0,-100.00,SE,125,10.0,14.0,57,0.00,,,0.00,5.000000,,2013-06-24 04:22:00,
2013-06-23 22:33:00,52.0,37.0,-100.00,SE,125,10.0,14.0,57,0.00,,,0.00,5.000000,,2013-06-24 04:33:00,
2013-06-23 22:43:00,52.0,37.0,-100.00,SE,125,10.0,14.0,57,0.00,,,0.00,5.000000,,2013-06-24 04:43:00,
2013-06-23 22:52:00,52.0,37.0,-100.00,SE,131,12.0,15.0,56,0.00,,,0.00,0.000000,,2013-06-24 04:52:00,
2013-06-23 23:12:00,52.0,37.0,-100.00,SE,131,12.0,15.0,56,0.00,,,0.00,0.000000,,2013-06-24 05:12:00,
2013-06-23 23:22:00,52.0,37.0,-100.00,SE,131,12.0,15.0,56,0.00,,,0.00,0.000000,,2013-06-24 05:22:00,
2013-06-23 23:35:00,52.0,37.0,-100.00,SE,131,12.0,15.0,56,0.00,,,0.00,0.000000,,2013-06-24 05:35:00,
2013-06-23 23:52:00,53.0,39.0,-100.00,SE,128,12.0,19.0,59,0.00,,,0.00,0.000000,,2013-06-24 05:52:00,